TimePST,TemperatureF,Dew PointF,Humidity,Sea Level PressureIn,VisibilityMPH,Wind Direction,Wind SpeedMPH,Gust SpeedMPH,PrecipitationIn,Events,Conditions,WindDirDegrees,DateUTC
12:03 AM,26.6,21.2,80,30.01,10.0,ENE,5.8,-,N/A,,Overcast,70,2014-02-23 08:03:00
12:58 AM,25.9,20.5,80,30.09,10.0,ENE,5.8,-,N/A,,Overcast,70,2014-02-23 08:58:00
1:18 AM,24.8,19.4,80,30.01,10.0,East,5.8,-,N/A,,Overcast,80,2014-02-23 09:18:00
1:26 AM,24.8,21.2,86,30.01,10.0,ENE,4.6,-,N/A,,Overcast,70,2014-02-23 09:26:00
1:48 AM,24.8,21.2,86,30.01,10.0,NE,6.9,-,N/A,,Overcast,50,2014-02-23 09:48:00
1:58 AM,25.0,21.4,86,30.10,10.0,NE,6.9,-,0.00,,Overcast,50,2014-02-23 09:58:00
2:03 AM,24.8,21.2,86,30.01,10.0,NE,8.1,-,N/A,,Overcast,50,2014-02-23 10:03:00
2:04 AM,24.8,21.2,86,30.01,10.0,NE,8.1,-,N/A,,Overcast,50,2014-02-23 10:04:00
2:26 AM,24.8,21.2,86,30.00,10.0,NE,6.9,-,N/A,,Overcast,50,2014-02-23 10:26:00
2:41 AM,24.8,21.2,86,30.00,10.0,NE,6.9,-,N/A,,Overcast,50,2014-02-23 10:41:00
2:50 AM,24.8,21.2,86,30.00,10.0,NE,6.9,-,N/A,,Overcast,50,2014-02-23 10:50:00
2:58 AM,24.3,21.0,87,30.09,10.0,NE,8.1,-,0.00,,Overcast,50,2014-02-23 10:58:00
2:59 AM,24.8,21.2,86,30.00,10.0,NE,6.9,-,N/A,,Overcast,50,2014-02-23 10:59:00
3:03 AM,24.8,21.2,86,30.00,10.0,NE,8.1,-,N/A,,Overcast,50,2014-02-23 11:03:00
3:08 AM,24.8,21.2,86,30.00,10.0,NE,6.9,-,N/A,,Overcast,50,2014-02-23 11:08:00
3:10 AM,24.8,21.2,86,30.00,10.0,NE,6.9,-,N/A,,Overcast,50,2014-02-23 11:10:00
3:20 AM,24.8,21.2,86,30.00,10.0,NE,8.1,-,N/A,,Overcast,50,2014-02-23 11:20:00
3:45 AM,24.8,21.2,86,29.99,10.0,NE,8.1,-,N/A,,Overcast,40,2014-02-23 11:45:00
3:56 AM,24.8,21.2,86,29.99,10.0,NE,10.4,-,N/A,,Overcast,40,2014-02-23 11:56:00
3:58 AM,24.4,21.4,88,30.08,10.0,NE,10.4,-,0.00,,Overcast,40,2014-02-23 11:58:00
4:18 AM,24.8,21.2,86,30.00,10.0,NE,8.1,-,N/A,,Overcast,40,2014-02-23 12:18:00
4:28 AM,24.8,21.2,86,30.00,10.0,NE,8.1,-,N/A,,Overcast,50,2014-02-23 12:28:00
4:33 AM,24.8,21.2,86,29.99,10.0,NE,9.2,-,N/A,,Overcast,50,2014-02-23 12:33:00
4:36 AM,24.8,21.2,86,29.99,10.0,NE,9.2,-,N/A,,Overcast,50,2014-02-23 12:36:00
4:42 AM,24.8,21.2,86,29.99,10.0,NE,9.2,-,N/A,,Overcast,50,2014-02-23 12:42:00
4:58 AM,24.3,21.6,89,30.08,10.0,NE,10.4,-,0.00,Snow,Light Snow,50,2014-02-23 12:58:00
5:13 AM,24.8,21.2,86,30.00,10.0,NE,8.1,-,N/A,Snow,Light Snow,50,2014-02-23 13:13:00
5:28 AM,24.8,21.2,86,29.99,10.0,NE,8.1,-,N/A,Snow,Light Snow,50,2014-02-23 13:28:00
5:43 AM,24.8,21.2,86,29.99,10.0,NE,8.1,-,N/A,Snow,Light Snow,50,2014-02-23 13:43:00
5:46 AM,24.8,21.2,86,29.99,9.0,NE,8.1,-,N/A,Snow,Light Snow,50,2014-02-23 13:46:00
5:56 AM,24.8,21.2,86,29.99,7.0,NE,9.2,-,N/A,Snow,Light Snow,50,2014-02-23 13:56:00
5:58 AM,24.3,21.6,89,30.08,7.0,NE,9.2,-,0.00,Snow,Light Snow,50,2014-02-23 13:58:00
6:11 AM,24.8,21.2,86,29.99,8.0,ENE,8.1,-,N/A,Snow,Light Snow,60,2014-02-23 14:11:00
6:21 AM,23.0,21.2,93,29.99,10.0,ENE,10.4,-,N/A,Snow,Light Snow,60,2014-02-23 14:21:00
6:35 AM,23.0,21.2,93,29.98,10.0,ENE,10.4,-,N/A,,Overcast,60,2014-02-23 14:35:00
6:58 AM,23.7,20.3,87,30.07,10.0,ENE,9.2,-,0.00,,Overcast,60,2014-02-23 14:58:00
6:59 AM,23.0,21.2,93,29.98,10.0,NE,9.2,-,N/A,Snow,Light Snow,50,2014-02-23 14:59:00
7:07 AM,23.0,21.2,93,29.98,10.0,NE,10.4,-,N/A,,Overcast,50,2014-02-23 15:07:00
7:12 AM,23.0,19.4,86,29.98,10.0,NE,11.5,-,N/A,Snow,Light Snow,40,2014-02-23 15:12:00
7:16 AM,23.0,19.4,86,29.98,10.0,NE,10.4,-,N/A,,Overcast,50,2014-02-23 15:16:00
7:17 AM,23.0,19.4,86,29.98,10.0,NE,10.4,-,N/A,Snow,Light Snow,50,2014-02-23 15:17:00
7:22 AM,23.0,19.4,86,29.98,10.0,NE,11.5,-,N/A,,Overcast,50,2014-02-23 15:22:00
7:23 AM,23.0,19.4,86,29.98,10.0,NE,11.5,-,N/A,Snow,Light Snow,50,2014-02-23 15:23:00
7:38 AM,23.0,19.4,86,29.99,10.0,NE,10.4,-,N/A,Snow,Light Snow,50,2014-02-23 15:38:00
7:58 AM,23.9,20.1,85,30.08,10.0,NE,9.2,-,0.00,Snow,Light Snow,50,2014-02-23 15:58:00
8:13 AM,23.0,19.4,86,29.99,10.0,NE,8.1,-,N/A,Snow,Light Snow,50,2014-02-23 16:13:00
8:18 AM,23.0,19.4,86,29.99,10.0,NE,8.1,-,N/A,Snow,Light Snow,50,2014-02-23 16:18:00
8:43 AM,23.0,19.4,86,29.98,4.0,ENE,10.4,-,N/A,Snow,Light Snow,60,2014-02-23 16:43:00
8:47 AM,23.0,19.4,86,29.98,2.5,NE,10.4,-,N/A,Snow,Light Snow,50,2014-02-23 16:47:00
8:49 AM,23.0,19.4,86,29.98,2.0,NE,11.5,-,N/A,Snow,Light Snow,50,2014-02-23 16:49:00
8:53 AM,23.0,21.2,93,29.98,1.8,ENE,10.4,-,N/A,Snow,Light Snow,60,2014-02-23 16:53:00
8:58 AM,23.9,20.5,87,30.08,1.8,NE,10.4,-,0.00,Snow,Light Snow,50,2014-02-23 16:58:00
9:08 AM,23.0,21.2,93,29.98,1.5,ENE,9.2,-,N/A,Snow,Light Snow,60,2014-02-23 17:08:00
9:10 AM,23.0,21.2,93,29.99,1.8,NE,9.2,-,N/A,Snow,Light Snow,50,2014-02-23 17:10:00
9:16 AM,23.0,21.2,93,29.98,2.0,NE,9.2,-,N/A,Snow,Light Snow,50,2014-02-23 17:16:00
9:26 AM,23.0,21.2,93,29.98,1.8,NE,9.2,-,N/A,Snow,Light Snow,50,2014-02-23 17:26:00
9:31 AM,23.0,21.2,93,29.98,2.0,NE,9.2,-,N/A,Snow,Light Snow,50,2014-02-23 17:31:00
9:36 AM,23.0,21.2,93,29.98,2.0,NE,9.2,-,N/A,Snow,Light Snow,40,2014-02-23 17:36:00
9:38 AM,23.0,21.2,93,29.98,2.5,NE,10.4,-,N/A,Snow,Light Snow,40,2014-02-23 17:38:00
9:42 AM,23.0,21.2,93,29.98,3.0,NE,10.4,-,N/A,Snow,Light Snow,50,2014-02-23 17:42:00
9:56 AM,24.8,21.2,86,29.98,2.5,NE,9.2,-,N/A,Snow,Light Snow,40,2014-02-23 17:56:00
9:58 AM,24.1,21.4,89,30.07,3.0,NE,10.4,-,0.00,Snow,Light Snow,50,2014-02-23 17:58:00
10:23 AM,24.8,21.2,86,29.98,4.0,NE,12.7,-,N/A,Snow,Light Snow,50,2014-02-23 18:23:00
10:58 AM,24.6,21.9,89,30.07,5.0,NE,11.5,-,0.00,Snow,Light Snow,50,2014-02-23 18:58:00
11:21 AM,24.8,21.2,86,29.96,5.0,NE,11.5,-,N/A,Snow,Light Snow,50,2014-02-23 19:21:00
11:58 AM,24.8,22.3,90,30.04,8.0,NE,12.7,-,0.00,Snow,Light Snow,50,2014-02-23 19:58:00
12:33 PM,24.8,23.0,93,29.95,5.0,NNE,8.1,-,N/A,Snow,Light Snow,30,2014-02-23 20:33:00
12:47 PM,24.8,23.0,93,29.94,2.5,NE,9.2,-,N/A,Snow,Light Snow,40,2014-02-23 20:47:00
12:51 PM,24.8,23.0,93,29.94,2.0,NNE,9.2,-,N/A,Snow,Light Snow,30,2014-02-23 20:51:00
12:55 PM,24.8,23.0,93,29.94,1.8,NE,8.1,-,N/A,Snow,Light Snow,40,2014-02-23 20:55:00
12:58 PM,24.8,23.0,93,30.04,1.8,NNE,9.2,-,0.00,Snow,Light Snow,30,2014-02-23 20:58:00
1:00 PM,24.8,23.0,93,29.95,1.5,NNE,8.1,-,N/A,Snow,Light Snow,30,2014-02-23 21:00:00
1:05 PM,24.8,23.0,93,29.94,1.5,NE,9.2,-,N/A,Snow,Light Snow,40,2014-02-23 21:05:00
1:07 PM,24.8,23.0,93,29.94,1.8,NE,8.1,-,N/A,Snow,Light Snow,40,2014-02-23 21:07:00
1:09 PM,24.8,23.0,93,29.94,2.0,NE,8.1,-,N/A,Snow,Light Snow,40,2014-02-23 21:09:00
1:11 PM,24.8,23.0,93,29.94,2.5,NE,6.9,-,N/A,Snow,Light Snow,40,2014-02-23 21:11:00
1:17 PM,24.8,23.0,93,29.94,3.0,NNE,8.1,-,N/A,Snow,Light Snow,20,2014-02-23 21:17:00
1:22 PM,26.6,23.0,86,29.93,3.0,NNE,10.4,-,N/A,Snow,Light Snow,30,2014-02-23 21:22:00
1:32 PM,26.6,23.0,86,29.93,4.0,NE,9.2,-,N/A,Snow,Light Snow,40,2014-02-23 21:32:00
1:37 PM,26.6,23.0,86,29.93,6.0,NE,9.2,-,N/A,Snow,Light Snow,40,2014-02-23 21:37:00
1:42 PM,26.6,23.0,86,29.93,8.0,NNE,9.2,-,N/A,,Overcast,20,2014-02-23 21:42:00
1:51 PM,26.6,23.0,86,29.92,10.0,NE,8.1,-,N/A,,Overcast,40,2014-02-23 21:51:00
1:56 PM,26.6,23.0,86,29.92,10.0,NNE,8.1,-,N/A,,Overcast,30,2014-02-23 21:56:00
1:58 PM,26.2,23.4,89,30.01,10.0,NE,8.1,-,0.00,,Overcast,40,2014-02-23 21:58:00
2:13 PM,26.6,23.0,86,29.93,10.0,NE,8.1,-,N/A,,Overcast,50,2014-02-23 22:13:00
2:56 PM,26.6,23.0,86,29.92,10.0,NE,8.1,-,N/A,,Overcast,50,2014-02-23 22:56:00
2:58 PM,26.2,23.4,89,30.01,10.0,NE,9.2,-,N/A,,Overcast,40,2014-02-23 22:58:00
3:22 PM,26.6,23.0,86,29.92,2.5,NE,6.9,-,N/A,Snow,Light Snow,40,2014-02-23 23:22:00
3:24 PM,26.6,24.8,93,29.92,2.0,NNE,6.9,-,N/A,Snow,Light Snow,30,2014-02-23 23:24:00
3:29 PM,26.6,24.8,93,29.92,1.8,NE,9.2,-,N/A,Snow,Light Snow,40,2014-02-23 23:29:00
3:31 PM,26.6,24.8,93,29.92,1.5,NE,8.1,-,N/A,Snow,Light Snow,40,2014-02-23 23:31:00
3:33 PM,26.6,24.8,93,29.92,1.2,NNE,8.1,-,N/A,Snow,Light Snow,30,2014-02-23 23:33:00
3:38 PM,26.6,24.8,93,29.91,1.2,NE,8.1,-,N/A,Snow,Light Snow,40,2014-02-23 23:38:00
3:52 PM,26.6,24.8,93,29.92,1.5,NE,9.2,-,N/A,Snow,Light Snow,40,2014-02-23 23:52:00
3:54 PM,26.6,24.8,93,29.91,1.8,NE,9.2,-,N/A,Snow,Light Snow,40,2014-02-23 23:54:00
3:58 PM,26.6,24.8,93,30.00,2.5,NNE,8.1,-,0.00,Snow,Light Snow,30,2014-02-23 23:58:00
4:00 PM,26.6,24.8,93,29.91,4.0,NE,8.1,-,N/A,Snow,Light Snow,40,2014-02-24 00:00:00
4:01 PM,26.6,24.8,93,29.91,4.0,NE,9.2,-,N/A,Snow,Light Snow,40,2014-02-24 00:01:00
4:16 PM,26.6,24.8,93,29.91,4.0,NE,6.9,-,N/A,Snow,Light Snow,40,2014-02-24 00:16:00
4:17 PM,26.6,24.8,93,29.91,4.0,NE,6.9,-,N/A,Snow,Light Snow,40,2014-02-24 00:17:00
4:21 PM,26.6,24.8,93,29.91,2.5,NNE,8.1,-,N/A,Snow,Light Snow,30,2014-02-24 00:21:00
4:25 PM,26.6,24.8,93,29.92,2.0,NNE,5.8,-,N/A,Snow,Light Snow,20,2014-02-24 00:25:00
4:29 PM,26.6,24.8,93,29.92,2.5,NNE,8.1,-,N/A,Snow,Light Snow,20,2014-02-24 00:29:00
4:43 PM,26.6,24.8,93,29.92,3.0,NNE,8.1,-,N/A,Snow,Light Snow,20,2014-02-24 00:43:00
4:48 PM,26.6,24.8,93,29.92,3.0,NNE,8.1,-,N/A,Snow,Light Snow,20,2014-02-24 00:48:00
4:52 PM,24.8,24.8,100,29.92,2.5,NNE,8.1,-,N/A,Snow,Light Snow,20,2014-02-24 00:52:00
4:54 PM,24.8,24.8,100,29.92,2.0,NNE,6.9,-,N/A,Snow,Light Snow,20,2014-02-24 00:54:00
4:56 PM,24.8,24.8,100,29.92,1.5,NNE,6.9,-,N/A,Snow,Light Snow,20,2014-02-24 00:56:00
4:58 PM,25.7,23.9,93,30.02,1.5,NNE,6.9,-,0.00,Snow,Light Snow,20,2014-02-24 00:58:00
4:59 PM,24.8,24.8,100,29.92,1.2,NNE,5.8,-,N/A,Snow,Light Snow,20,2014-02-24 00:59:00
5:00 PM,24.8,24.8,100,29.92,1.0,NNE,6.9,-,N/A,Snow,Light Snow,20,2014-02-24 01:00:00
5:11 PM,24.8,24.8,100,29.92,1.2,NNE,8.1,-,N/A,Snow,Light Snow,20,2014-02-24 01:11:00
5:16 PM,24.8,24.8,100,29.92,1.2,NNE,6.9,-,N/A,Snow,Light Snow,20,2014-02-24 01:16:00
5:19 PM,24.8,24.8,100,29.92,1.0,NNE,6.9,-,N/A,Snow,Light Snow,20,2014-02-24 01:19:00
5:26 PM,24.8,24.8,100,29.92,1.2,NNE,8.1,-,N/A,Snow,Light Snow,30,2014-02-24 01:26:00
5:30 PM,24.8,24.8,100,29.92,1.5,NNE,6.9,-,N/A,Snow,Light Snow,20,2014-02-24 01:30:00
5:32 PM,24.8,23.0,93,29.92,1.8,NNE,6.9,-,N/A,Snow,Light Snow,20,2014-02-24 01:32:00
5:34 PM,24.8,23.0,93,29.92,2.0,NNE,6.9,-,N/A,Snow,Light Snow,20,2014-02-24 01:34:00
5:36 PM,24.8,23.0,93,29.93,2.5,NNE,8.1,-,N/A,Snow,Light Snow,20,2014-02-24 01:36:00
5:38 PM,24.8,23.0,93,29.93,3.0,North,6.9,-,N/A,Snow,Light Snow,10,2014-02-24 01:38:00
5:58 PM,25.2,23.4,93,30.03,4.0,NNE,6.9,-,0.00,Snow,Light Snow,20,2014-02-24 01:58:00
6:13 PM,24.8,23.0,93,29.93,4.0,NNE,8.1,-,N/A,Snow,Light Snow,20,2014-02-24 02:13:00
6:58 PM,25.0,23.5,94,30.03,4.0,NNE,8.1,-,0.00,Snow,Light Snow,20,2014-02-24 02:58:00
7:06 PM,24.8,23.0,93,29.93,4.0,NNE,5.8,-,N/A,Snow,Light Snow,20,2014-02-24 03:06:00
7:16 PM,24.8,23.0,93,29.93,9.0,NNE,6.9,-,N/A,Snow,Light Snow,20,2014-02-24 03:16:00
7:21 PM,24.8,23.0,93,29.94,10.0,NNE,5.8,-,N/A,Snow,Light Snow,20,2014-02-24 03:21:00
7:31 PM,24.8,23.0,93,29.93,10.0,NNE,5.8,-,N/A,,Mostly Cloudy,30,2014-02-24 03:31:00
7:36 PM,24.8,23.0,93,29.93,7.0,NNE,5.8,-,N/A,Snow,Light Snow,20,2014-02-24 03:36:00
7:58 PM,24.8,23.4,94,30.04,7.0,NNE,6.9,-,0.00,Snow,Light Snow,20,2014-02-24 03:58:00
8:08 PM,24.8,23.0,93,29.94,9.0,NNE,8.1,-,N/A,Snow,Light Snow,20,2014-02-24 04:08:00
8:18 PM,24.8,23.0,93,29.94,10.0,NNE,8.1,-,N/A,Snow,Light Snow,20,2014-02-24 04:18:00
8:38 PM,24.8,23.0,93,29.95,10.0,NNE,6.9,-,N/A,,Overcast,20,2014-02-24 04:38:00
8:47 PM,24.8,23.0,93,29.95,10.0,NNE,8.1,-,N/A,,Overcast,20,2014-02-24 04:47:00
8:58 PM,24.6,23.2,94,30.05,10.0,NNE,5.8,-,0.00,,Overcast,20,2014-02-24 04:58:00
9:35 PM,24.8,23.0,93,29.96,10.0,NNE,6.9,-,N/A,,Overcast,20,2014-02-24 05:35:00
9:58 PM,24.6,22.8,93,30.07,10.0,NNE,5.8,-,0.00,,Overcast,30,2014-02-24 05:58:00
10:58 PM,24.6,22.6,92,30.09,10.0,NNE,8.1,-,N/A,,Overcast,20,2014-02-24 06:58:00
11:58 PM,24.6,22.5,91,30.11,10.0,NNE,5.8,-,N/A,,Overcast,20,2014-02-24 07:58:00